Location: Brunsbüttel
(52.3892°N, 10.6138°E)
Time: 00:37:17
(UTC+00:00)

ISS - Pass Details

Date: 19 May 2025
Orbit: 415 x 417 km, 51.6° (Epoch: 23 June)

Event Time Altitude Azimuth Distance (km) Brightness Sun altitude
Rises 20:09:38 0° 277° (W) 2,363 0.9 -7.3°
Reaches altitude 10° 20:11:45 10° 275° (W) 1,497 -0.2 -7.5°
Maximum altitude 20:15:05 67° 193° (SSW) 455 -3.7 -7.9°
Drops below altitude 10° 20:18:25 10° 109° (ESE) 1,491 -1.5 -8.2°
Enters shadow 20:18:41 - 109° (ESE) 1,605 -1.3 -8.2°
